Tracking 18843 objects as of 20-November-2017
HD Live streaming from Space Station
objects crossing your sky now

FENGYUN 1C DEB

Track FENGYUN 1C DEB now!
10-day predictions


NORAD ID: 30666
Int'l Code: 1999-025APY
Perigee: 857.7 km
Apogee: 942.3 km
Inclination: 99.0 °
Period: 102.8 minutes
Semi major axis: 7270 km
RCS: 0.0336 m2 (small)
Launch date: May 10, 1999
Source: People's Republic of China (PRC)
Launch site: Taiyaun Space Center, China (TSC)

Note: This is SATELLITE DEBRIS
aabbcc
Your satellite tracking list
Your tracking list is empty




NASA's NSSDC Master Catalog

Two Line Element Set (TLE):
1 30666U 99025APY 17324.13361576  .00000267  00000-0  20695-3 0  9995
2 30666  98.9678   1.0189 0058200  56.4976  14.7731 14.00270129548917
Source of the keplerian elements: AFSPC